ALK253 VCBI-OEDF

Flight info

Callsign ALK253
Flight time N/A
Altitude 38000
Route BASUR2D BASUR P570 GOLNI N569 TOKRA/N0454F280 Y511 BOSOB M321 KSA/N0455F390 N687 MIBRA
Aircraft A20N/M-SDE2E3FGHIRWXY/LB1

Departure

Time 2026-05-05 23:59
Airport Bandaranaike International Colombo Airport (VCBI)

Arrival

Time N/A
Airport King Fahd International Airport (OEDF)
Time Latitude Longitude Altitude Speed Heading
2026-05-05 23:39 7.17614 79.88567 27 ft 0 kts 217°
2026-05-05 23:48 7.17633 79.88582 27 ft 5 kts 217°
2026-05-05 23:48 7.17662 79.88604 27 ft 5 kts 217°
2026-05-05 23:48 7.17689 79.88627 27 ft 5 kts 245°
2026-05-05 23:49 7.17688 79.88660 27 ft 1 kts 311°
2026-05-05 23:53 7.17692 79.88655 27 ft 2 kts 311°
2026-05-05 23:53 7.17710 79.88634 27 ft 6 kts 309°
2026-05-05 23:54 7.17744 79.88588 27 ft 10 kts 306°
2026-05-05 23:54 7.17790 79.88526 27 ft 12 kts 307°
2026-05-05 23:54 7.17844 79.88455 27 ft 13 kts 305°
2026-05-05 23:54 7.17857 79.88419 27 ft 3 kts 275°
2026-05-05 23:55 7.17854 79.88411 27 ft 2 kts 248°
2026-05-05 23:55 7.17847 79.88400 27 ft 2 kts 234°
2026-05-05 23:55 7.17838 79.88392 27 ft 2 kts 223°
2026-05-05 23:55 7.17821 79.88376 27 ft 7 kts 221°
2026-05-05 23:56 7.17766 79.88335 27 ft 12 kts 216°
2026-05-05 23:56 7.17687 79.88275 27 ft 16 kts 217°
2026-05-05 23:56 7.17594 79.88200 27 ft 18 kts 212°
2026-05-05 23:56 7.17488 79.88125 27 ft 19 kts 216°
2026-05-05 23:57 7.17433 79.88028 27 ft 15 kts 288°
2026-05-05 23:57 7.17440 79.88017 27 ft 0 kts 303°
2026-05-05 23:57 7.17444 79.88011 28 ft 2 kts 305°
2026-05-05 23:58 7.17462 79.87987 28 ft 9 kts 306°
2026-05-05 23:58 7.17506 79.87932 29 ft 10 kts 335°
2026-05-05 23:58 7.17649 79.88018 29 ft 56 kts 39°
2026-05-05 23:58 7.18145 79.88399 27 ft 121 kts 37°
2026-05-05 23:59 7.18947 79.89016 85 ft 164 kts 38°
2026-05-05 23:59 7.19862 79.89711 557 ft 172 kts 37°
2026-05-05 23:59 7.20849 79.90413 1113 ft 177 kts 24°
2026-05-05 23:59 7.22019 79.90598 1740 ft 174 kts 343°
2026-05-06 00:00 7.23094 79.89966 2104 ft 190 kts 314°
2026-05-06 00:00 7.24016 79.88891 2406 ft 215 kts 305°
2026-05-06 00:00 7.24934 79.87613 2833 ft 235 kts 304°
2026-05-06 00:00 7.25933 79.86244 3425 ft 250 kts 306°
2026-05-06 00:01 7.26794 79.84671 3932 ft 263 kts 291°
2026-05-06 00:01 7.27482 79.82944 4540 ft 268 kts 291°
2026-05-06 00:01 7.28175 79.81185 5143 ft 272 kts 291°
2026-05-06 00:01 7.28873 79.79408 5745 ft 274 kts 291°
2026-05-06 00:02 7.29578 79.77615 6354 ft 277 kts 291°
2026-05-06 00:02 7.30290 79.75803 6935 ft 280 kts 291°
2026-05-06 00:02 7.31010 79.73975 7520 ft 282 kts 291°
2026-05-06 00:02 7.31735 79.72133 8114 ft 284 kts 292°
2026-05-06 00:03 7.32468 79.70272 8730 ft 287 kts 292°
2026-05-06 00:03 7.33209 79.68390 9353 ft 291 kts 292°
2026-05-06 00:03 7.33958 79.66489 9956 ft 293 kts 292°
2026-05-06 00:03 7.34715 79.64568 10536 ft 298 kts 292°
2026-05-06 00:04 7.35487 79.62610 11132 ft 304 kts 291°
2026-05-06 00:04 7.36275 79.60612 11733 ft 310 kts 291°
2026-05-06 00:04 7.37076 79.58578 12344 ft 315 kts 291°
2026-05-06 00:04 7.37887 79.56518 12970 ft 319 kts 291°
2026-05-06 00:05 7.39540 79.52315 14162 ft 326 kts 291°
2026-05-06 00:05 7.40378 79.50182 14737 ft 329 kts 291°
2026-05-06 00:05 7.41223 79.48030 15322 ft 331 kts 291°
2026-05-06 00:06 7.42071 79.45870 15914 ft 333 kts 291°
2026-05-06 00:06 7.42924 79.43698 16517 ft 334 kts 291°
2026-05-06 00:06 7.43778 79.41523 17137 ft 334 kts 291°
2026-05-06 00:06 7.44633 79.39343 17762 ft 334 kts 291°
2026-05-06 00:07 7.45486 79.37168 18358 ft 334 kts 291°
2026-05-06 00:07 7.46339 79.34996 18904 ft 333 kts 291°
2026-05-06 00:07 7.47187 79.32833 19472 ft 331 kts 291°
2026-05-06 00:07 7.48024 79.30701 20176 ft 323 kts 291°
2026-05-06 00:08 7.48836 79.28630 20946 ft 313 kts 291°
2026-05-06 00:08 7.49624 79.26624 21695 ft 302 kts 291°
2026-05-06 00:08 7.50384 79.24688 22381 ft 295 kts 291°
2026-05-06 00:08 7.51132 79.22781 22894 ft 291 kts 291°
2026-05-06 00:09 7.51870 79.20896 23358 ft 288 kts 291°
2026-05-06 00:09 7.52606 79.19020 23646 ft 289 kts 291°
2026-05-06 00:09 7.53354 79.17122 23863 ft 293 kts 291°
2026-05-06 00:09 7.54113 79.15204 24092 ft 296 kts 291°
2026-05-06 00:10 7.54879 79.13275 24347 ft 298 kts 291°
2026-05-06 00:10 7.55654 79.11301 24437 ft 307 kts 290°
2026-05-06 00:10 7.56435 79.09273 24578 ft 314 kts 290°
2026-05-06 00:10 7.57237 79.07198 24717 ft 322 kts 291°
2026-05-06 00:11 7.58064 79.05073 24856 ft 329 kts 291°
2026-05-06 00:11 7.58913 79.02900 24997 ft 337 kts 291°
2026-05-06 00:11 7.59781 79.00679 25131 ft 345 kts 291°
2026-05-06 00:11 7.60670 78.98408 25278 ft 352 kts 291°
2026-05-06 00:12 7.61579 78.96086 25417 ft 360 kts 291°
2026-05-06 00:12 7.62505 78.93717 25560 ft 367 kts 291°
2026-05-06 00:12 7.63452 78.91297 25703 ft 374 kts 291°
2026-05-06 00:12 7.64415 78.88834 25843 ft 382 kts 291°
2026-05-06 00:13 7.65397 78.86322 25989 ft 389 kts 291°
2026-05-06 00:13 7.66396 78.83765 26130 ft 395 kts 291°
2026-05-06 00:13 7.67412 78.81165 26286 ft 402 kts 291°
2026-05-06 00:13 7.68445 78.78522 26419 ft 409 kts 291°
2026-05-06 00:14 7.69494 78.75835 26564 ft 415 kts 291°
2026-05-06 00:14 7.70558 78.73110 26706 ft 421 kts 291°
2026-05-06 00:14 7.71638 78.70344 26849 ft 427 kts 291°
2026-05-06 00:14 7.72729 78.67548 26998 ft 432 kts 291°
2026-05-06 00:15 7.73837 78.64708 27146 ft 437 kts 291°
2026-05-06 00:15 7.74956 78.61841 27298 ft 442 kts 291°
2026-05-06 00:15 7.76086 78.58942 27442 ft 447 kts 291°
2026-05-06 00:15 7.77228 78.56015 27589 ft 449 kts 291°
2026-05-06 00:16 7.78372 78.53080 27738 ft 450 kts 291°
2026-05-06 00:16 7.79519 78.50138 27887 ft 451 kts 291°
2026-05-06 00:16 7.80670 78.47185 28032 ft 453 kts 291°
2026-05-06 00:16 7.81822 78.44224 28189 ft 454 kts 291°
2026-05-06 00:17 7.82978 78.41254 28340 ft 455 kts 291°
2026-05-06 00:17 7.84135 78.38281 28492 ft 456 kts 291°
2026-05-06 00:17 7.85297 78.35295 28645 ft 458 kts 291°
2026-05-06 00:17 7.86463 78.32301 28799 ft 460 kts 291°
2026-05-06 00:18 7.87238 78.30313 28903 ft 461 kts 291°
2026-05-06 00:18 7.88411 78.27300 29057 ft 462 kts 291°
2026-05-06 00:18 7.89586 78.24284 29208 ft 463 kts 291°
2026-05-06 00:18 7.90764 78.21254 29372 ft 464 kts 291°
2026-05-06 00:19 7.91946 78.18216 29529 ft 466 kts 291°
2026-05-06 00:19 7.93129 78.15173 29704 ft 467 kts 291°
2026-05-06 00:19 7.94387 78.12144 29848 ft 469 kts 294°
2026-05-06 00:19 7.95736 78.09148 29988 ft 470 kts 295°
2026-05-06 00:20 7.97105 78.06151 30123 ft 471 kts 294°
2026-05-06 00:20 7.98469 78.03144 30250 ft 472 kts 294°
2026-05-06 00:20 7.99824 78.00128 30395 ft 473 kts 294°
2026-05-06 00:20 8.01175 77.97096 30527 ft 474 kts 294°
2026-05-06 00:21 8.02525 77.94059 30674 ft 475 kts 294°
2026-05-06 00:21 8.03876 77.91015 30804 ft 476 kts 294°
2026-05-06 00:21 8.05251 77.87976 30934 ft 476 kts 297°
2026-05-06 00:21 8.06956 77.85120 31086 ft 476 kts 303°
2026-05-06 00:22 8.08809 77.82300 31218 ft 476 kts 304°
2026-05-06 00:22 8.10650 77.79529 31365 ft 475 kts 303°
2026-05-06 00:22 8.12484 77.76745 31506 ft 476 kts 303°
2026-05-06 00:22 8.14278 77.73995 31657 ft 476 kts 303°
2026-05-06 00:23 8.16087 77.71204 31791 ft 476 kts 303°
2026-05-06 00:23 8.17898 77.68402 31937 ft 476 kts 303°
2026-05-06 00:23 8.19727 77.65567 32081 ft 476 kts 303°
2026-05-06 00:23 8.21530 77.62770 32226 ft 475 kts 303°
2026-05-06 00:24 8.23306 77.60014 32371 ft 475 kts 303°
2026-05-06 00:24 8.25108 77.57215 32521 ft 475 kts 303°
2026-05-06 00:24 8.26909 77.54418 32677 ft 475 kts 303°
2026-05-06 00:24 8.28717 77.51611 32820 ft 475 kts 303°
2026-05-06 00:25 8.30516 77.48817 32972 ft 475 kts 303°
2026-05-06 00:25 8.32314 77.46025 33120 ft 475 kts 303°
2026-05-06 00:25 8.34115 77.43228 33269 ft 474 kts 303°
2026-05-06 00:25 8.35910 77.40440 33422 ft 474 kts 303°
2026-05-06 00:26 8.37709 77.37649 33577 ft 474 kts 303°
2026-05-06 00:26 8.39506 77.34861 33740 ft 474 kts 303°
2026-05-06 00:26 8.41300 77.32074 33880 ft 473 kts 303°
2026-05-06 00:26 8.43094 77.29287 34011 ft 473 kts 303°
2026-05-06 00:27 8.44883 77.26505 34146 ft 472 kts 303°
2026-05-06 00:27 8.46673 77.23722 34274 ft 472 kts 303°
2026-05-06 00:27 8.48458 77.20945 34413 ft 471 kts 303°
2026-05-06 00:27 8.50244 77.18167 34543 ft 471 kts 303°
2026-05-06 00:28 8.52026 77.15392 34689 ft 471 kts 303°
2026-05-06 00:28 8.53806 77.12622 34809 ft 470 kts 303°
2026-05-06 00:28 8.55588 77.09847 34952 ft 470 kts 303°
2026-05-06 00:28 8.57368 77.07076 35085 ft 470 kts 303°
2026-05-06 00:29 8.59149 77.04302 35215 ft 470 kts 303°
2026-05-06 00:29 8.60923 77.01536 35364 ft 470 kts 303°
2026-05-06 00:29 8.62700 76.98762 35504 ft 470 kts 303°
2026-05-06 00:29 8.64450 76.96031 35645 ft 469 kts 303°
2026-05-06 00:30 8.66244 76.93232 35787 ft 468 kts 303°
2026-05-06 00:30 8.68015 76.90475 35929 ft 468 kts 303°
2026-05-06 00:30 8.69784 76.87720 36076 ft 467 kts 303°
2026-05-06 00:30 8.71553 76.84964 36220 ft 467 kts 303°
2026-05-06 00:31 8.73316 76.82213 36374 ft 466 kts 303°
2026-05-06 00:31 8.75079 76.79464 36518 ft 466 kts 303°
2026-05-06 00:31 8.76840 76.76714 36680 ft 466 kts 303°
2026-05-06 00:31 8.78600 76.73967 36810 ft 465 kts 303°
2026-05-06 00:32 8.80355 76.71226 36964 ft 465 kts 303°
2026-05-06 00:32 8.82111 76.68481 37116 ft 464 kts 303°
2026-05-06 00:32 8.83862 76.65745 37264 ft 463 kts 303°
2026-05-06 00:32 8.85610 76.63012 37423 ft 462 kts 303°
2026-05-06 00:33 8.87355 76.60285 37578 ft 461 kts 303°
2026-05-06 00:33 8.89096 76.57563 37732 ft 460 kts 303°
2026-05-06 00:33 8.90833 76.54845 37889 ft 459 kts 303°
2026-05-06 00:33 8.92561 76.52142 38045 ft 457 kts 303°
2026-05-06 00:34 8.94287 76.49444 38203 ft 456 kts 303°
2026-05-06 00:34 8.96005 76.46755 38365 ft 454 kts 303°
2026-05-06 00:34 8.97715 76.44079 38513 ft 452 kts 303°
2026-05-06 00:34 8.99418 76.41412 38642 ft 450 kts 303°
2026-05-06 00:35 9.01111 76.38763 38773 ft 448 kts 303°
2026-05-06 00:35 9.04500 76.33454 38813 ft 450 kts 303°
2026-05-06 00:36 9.07906 76.28119 38806 ft 453 kts 303°
2026-05-06 00:36 9.11334 76.22745 38812 ft 456 kts 302°
2026-05-06 00:37 9.14781 76.17339 38811 ft 459 kts 303°
2026-05-06 00:37 9.18251 76.11897 38809 ft 461 kts 303°
2026-05-06 00:38 9.21728 76.06439 38814 ft 461 kts 303°
2026-05-06 00:38 9.25204 76.00981 38820 ft 461 kts 303°
2026-05-06 00:39 9.28679 75.95523 38827 ft 461 kts 303°
2026-05-06 00:39 9.32154 75.90062 38824 ft 462 kts 303°
2026-05-06 00:40 9.35634 75.84592 38828 ft 462 kts 303°
2026-05-06 00:40 9.39117 75.79115 38828 ft 463 kts 303°
2026-05-06 00:41 9.42599 75.73637 38826 ft 462 kts 303°
2026-05-06 00:41 9.46081 75.68155 38827 ft 463 kts 303°
2026-05-06 00:42 9.49562 75.62673 38826 ft 463 kts 303°
2026-05-06 00:42 9.53048 75.57179 38824 ft 463 kts 303°
2026-05-06 00:43 9.56534 75.51685 38822 ft 464 kts 303°
2026-05-06 00:43 9.60022 75.46184 38823 ft 464 kts 303°
2026-05-06 00:44 9.63511 75.40679 38837 ft 464 kts 303°
2026-05-06 00:44 9.66981 75.35203 38832 ft 465 kts 303°
2026-05-06 00:45 9.70495 75.29654 38841 ft 465 kts 303°
2026-05-06 00:45 9.73965 75.24171 38824 ft 465 kts 303°
2026-05-06 00:46 9.77459 75.18648 38828 ft 465 kts 303°
2026-05-06 00:46 9.80953 75.13124 38826 ft 466 kts 303°
2026-05-06 00:47 9.84449 75.07593 38825 ft 466 kts 303°
2026-05-06 00:47 9.87947 75.02056 38829 ft 466 kts 303°
2026-05-06 00:48 9.91441 74.96523 38838 ft 466 kts 303°
2026-05-06 00:48 9.94938 74.90985 38837 ft 466 kts 303°
2026-05-06 00:49 9.98432 74.85446 38841 ft 466 kts 303°
2026-05-06 00:49 10.01926 74.79906 38838 ft 466 kts 303°
2026-05-06 00:50 10.05420 74.74361 38834 ft 466 kts 303°
2026-05-06 00:50 10.08903 74.68820 38827 ft 466 kts 303°
2026-05-06 00:51 10.12394 74.63272 38829 ft 466 kts 303°
2026-05-06 00:51 10.15884 74.57729 38831 ft 466 kts 303°
2026-05-06 00:52 10.19378 74.52190 38827 ft 466 kts 303°
2026-05-06 00:52 10.22870 74.46644 38827 ft 466 kts 303°
2026-05-06 00:53 10.26333 74.41135 38824 ft 466 kts 303°
2026-05-06 00:53 10.29822 74.35581 38824 ft 466 kts 303°
2026-05-06 00:54 10.33307 74.30034 38829 ft 467 kts 303°
2026-05-06 00:54 10.36799 74.24473 38831 ft 467 kts 303°
2026-05-06 00:55 10.40293 74.18905 38827 ft 467 kts 303°
2026-05-06 00:55 10.44011 74.13501 38830 ft 467 kts 307°
2026-05-06 00:56 10.47854 74.08174 38832 ft 467 kts 306°
2026-05-06 00:56 10.51660 74.02822 38828 ft 468 kts 306°
2026-05-06 00:57 10.55451 73.97452 38833 ft 467 kts 306°
2026-05-06 00:57 10.59237 73.92081 38826 ft 467 kts 306°
2026-05-06 00:58 10.63022 73.86711 38829 ft 468 kts 306°
2026-05-06 00:58 10.66807 73.81339 38830 ft 467 kts 306°
2026-05-06 00:59 10.70589 73.75968 38834 ft 467 kts 306°
2026-05-06 00:59 10.74368 73.70598 38834 ft 467 kts 306°
2026-05-06 01:00 10.78149 73.65224 38836 ft 467 kts 306°
2026-05-06 01:00 10.81924 73.59855 38836 ft 467 kts 306°
2026-05-06 01:01 10.85701 73.54481 38835 ft 467 kts 306°
2026-05-06 01:01 10.88862 73.49980 38833 ft 467 kts 306°
2026-05-06 01:02 10.92632 73.44612 38834 ft 466 kts 306°
2026-05-06 01:02 10.96401 73.39242 38834 ft 466 kts 306°
2026-05-06 01:03 11.00171 73.33867 38833 ft 467 kts 306°
2026-05-06 01:03 11.03941 73.28489 38829 ft 466 kts 306°
2026-05-06 01:04 11.07705 73.23115 38844 ft 466 kts 306°
2026-05-06 01:04 11.11465 73.17747 38835 ft 466 kts 306°
2026-05-06 01:05 11.15227 73.12374 38836 ft 466 kts 306°
2026-05-06 01:05 11.18989 73.06996 38842 ft 466 kts 306°
2026-05-06 01:06 11.22747 73.01624 38835 ft 466 kts 306°
2026-05-06 01:06 11.26501 72.96253 38834 ft 465 kts 306°
2026-05-06 01:07 11.30250 72.90887 38834 ft 465 kts 306°
2026-05-06 01:07 11.33998 72.85518 38836 ft 465 kts 306°
2026-05-06 01:08 11.37746 72.80147 38839 ft 465 kts 306°
2026-05-06 01:08 11.41466 72.74814 38837 ft 464 kts 306°
2026-05-06 01:09 11.45233 72.69410 38839 ft 464 kts 306°
2026-05-06 01:09 11.48970 72.64047 38838 ft 464 kts 306°
2026-05-06 01:10 11.52679 72.58720 38835 ft 464 kts 306°
2026-05-06 01:10 11.56416 72.53352 38835 ft 464 kts 305°
2026-05-06 01:11 11.60152 72.47981 38835 ft 464 kts 305°
2026-05-06 01:11 11.63886 72.42611 38836 ft 464 kts 305°
2026-05-06 01:12 11.67622 72.37239 38836 ft 465 kts 305°
2026-05-06 01:12 11.71359 72.31861 38831 ft 465 kts 305°
2026-05-06 01:13 11.75102 72.26471 38835 ft 465 kts 305°
2026-05-06 01:13 11.78842 72.21078 38850 ft 466 kts 305°
2026-05-06 01:14 11.84454 72.12982 38847 ft 466 kts 305°
2026-05-06 01:14 11.88220 72.07546 38838 ft 465 kts 305°
2026-05-06 01:15 11.91957 72.02149 38853 ft 466 kts 305°
2026-05-06 01:15 11.95732 71.96772 38853 ft 466 kts 307°
2026-05-06 01:16 11.99606 71.91471 38839 ft 465 kts 307°
2026-05-06 01:16 12.03467 71.86172 38846 ft 465 kts 307°
2026-05-06 01:17 12.07317 71.80863 38850 ft 465 kts 307°
2026-05-06 01:17 12.11162 71.75553 38849 ft 465 kts 307°
2026-05-06 01:18 12.15004 71.70243 38853 ft 465 kts 307°
2026-05-06 01:18 12.18847 71.64931 38840 ft 464 kts 307°
2026-05-06 01:19 12.22659 71.59657 38847 ft 464 kts 307°
2026-05-06 01:19 12.26503 71.54338 38851 ft 465 kts 307°
2026-05-06 01:20 12.30364 71.48992 38844 ft 465 kts 307°
2026-05-06 01:20 12.34200 71.43675 38856 ft 464 kts 307°
2026-05-06 01:21 12.38030 71.38363 38849 ft 464 kts 307°
2026-05-06 01:21 12.41865 71.33049 38844 ft 464 kts 307°
2026-05-06 01:22 12.45694 71.27736 38856 ft 464 kts 307°
2026-05-06 01:22 12.49523 71.22421 38857 ft 464 kts 307°
2026-05-06 01:23 12.53356 71.17104 38849 ft 464 kts 307°
2026-05-06 01:23 12.57183 71.11789 38854 ft 464 kts 307°
2026-05-06 01:24 12.61009 71.06476 38850 ft 464 kts 307°
2026-05-06 01:24 12.64834 71.01161 38848 ft 464 kts 307°
2026-05-06 01:25 12.68656 70.95848 38843 ft 463 kts 307°
2026-05-06 01:25 12.72472 70.90539 38853 ft 462 kts 307°
2026-05-06 01:26 12.76284 70.85235 38851 ft 463 kts 307°
2026-05-06 01:26 12.80095 70.79929 38849 ft 462 kts 307°
2026-05-06 01:27 12.83900 70.74628 38848 ft 461 kts 307°
2026-05-06 01:27 12.87691 70.69344 38854 ft 460 kts 307°
2026-05-06 01:28 12.91483 70.64054 38861 ft 460 kts 307°
2026-05-06 01:28 12.95266 70.58775 38851 ft 459 kts 306°
2026-05-06 01:29 12.99048 70.53493 38857 ft 460 kts 306°
2026-05-06 01:29 13.02823 70.48217 38857 ft 458 kts 306°
2026-05-06 01:30 13.06592 70.42942 38857 ft 458 kts 306°
2026-05-06 01:30 13.10337 70.37666 38854 ft 457 kts 306°
2026-05-06 01:31 13.14081 70.32386 38857 ft 457 kts 306°
2026-05-06 01:31 13.17820 70.27116 38857 ft 457 kts 306°
2026-05-06 01:32 13.21554 70.21850 38855 ft 456 kts 306°
2026-05-06 01:32 13.25285 70.16585 38858 ft 456 kts 306°
2026-05-06 01:33 13.29013 70.11320 38857 ft 456 kts 306°
2026-05-06 01:33 13.32715 70.06090 38858 ft 456 kts 306°
2026-05-06 01:34 13.36443 70.00819 38862 ft 456 kts 306°
2026-05-06 01:34 13.40167 69.95551 38866 ft 456 kts 306°
2026-05-06 01:35 13.43891 69.90280 38869 ft 456 kts 306°
2026-05-06 01:35 13.47614 69.85007 38862 ft 456 kts 306°
2026-05-06 01:36 13.51335 69.79735 38863 ft 456 kts 306°
2026-05-06 01:36 13.55053 69.74465 38857 ft 456 kts 306°
2026-05-06 01:37 13.58768 69.69195 38856 ft 455 kts 306°
2026-05-06 01:37 13.62485 69.63921 38858 ft 455 kts 306°
2026-05-06 01:38 13.66198 69.58647 38862 ft 455 kts 306°
2026-05-06 01:38 13.69908 69.53371 38866 ft 455 kts 306°
2026-05-06 01:39 13.73613 69.48098 38860 ft 455 kts 306°
2026-05-06 01:39 13.77316 69.42826 38861 ft 455 kts 306°
2026-05-06 01:40 13.81020 69.37550 38865 ft 455 kts 306°
2026-05-06 01:40 13.84720 69.32276 38865 ft 455 kts 306°
2026-05-06 01:41 13.91696 69.22324 38866 ft 455 kts 306°
2026-05-06 01:42 13.95401 69.17034 38860 ft 455 kts 306°
2026-05-06 01:42 13.99099 69.11752 38856 ft 455 kts 306°
2026-05-06 01:43 14.02795 69.06468 38867 ft 455 kts 306°
2026-05-06 01:43 14.06490 69.01180 38862 ft 455 kts 306°
2026-05-06 01:44 14.10189 68.95897 38865 ft 455 kts 306°
2026-05-06 01:44 14.13913 68.90633 38868 ft 455 kts 306°
2026-05-06 01:45 14.17641 68.85363 38861 ft 455 kts 306°
2026-05-06 01:45 14.21359 68.80096 38875 ft 455 kts 306°
2026-05-06 01:46 14.25081 68.74819 38870 ft 455 kts 306°
2026-05-06 01:46 14.28801 68.69541 38869 ft 455 kts 306°
2026-05-06 01:47 14.32516 68.64265 38871 ft 455 kts 306°
2026-05-06 01:47 14.36234 68.58983 38857 ft 455 kts 306°
2026-05-06 01:48 14.39950 68.53699 38866 ft 455 kts 306°
2026-05-06 01:48 14.43667 68.48412 38860 ft 455 kts 306°
2026-05-06 01:49 14.47381 68.43125 38872 ft 455 kts 306°
2026-05-06 01:49 14.51092 68.37839 38875 ft 455 kts 306°
2026-05-06 01:50 14.54805 68.32548 38872 ft 455 kts 306°
2026-05-06 01:50 14.58517 68.27253 38872 ft 455 kts 306°
2026-05-06 01:51 14.62223 68.21963 38863 ft 455 kts 306°
2026-05-06 01:51 14.65935 68.16662 38865 ft 455 kts 306°
2026-05-06 01:52 14.69642 68.11364 38874 ft 455 kts 306°
2026-05-06 01:52 14.73349 68.06063 38871 ft 455 kts 306°
2026-05-06 01:53 14.77054 68.00761 38872 ft 455 kts 306°
2026-05-06 01:53 14.80758 67.95456 38876 ft 455 kts 306°
2026-05-06 01:54 14.84461 67.90149 38872 ft 455 kts 306°
2026-05-06 01:54 14.88162 67.84843 38875 ft 455 kts 306°
2026-05-06 01:55 14.91863 67.79531 38875 ft 455 kts 306°
2026-05-06 01:55 14.95558 67.74225 38882 ft 455 kts 306°
2026-05-06 01:56 14.99246 67.68906 38874 ft 455 kts 305°
2026-05-06 01:56 15.02931 67.63581 38882 ft 455 kts 305°
2026-05-06 01:57 15.06623 67.58263 38875 ft 455 kts 305°
2026-05-06 01:57 15.10318 67.52949 38877 ft 455 kts 305°
2026-05-06 01:58 15.14010 67.47637 38883 ft 455 kts 305°
2026-05-06 01:58 15.17710 67.42325 38883 ft 455 kts 306°
2026-05-06 01:59 15.21414 67.37024 38876 ft 455 kts 306°
2026-05-06 01:59 15.25105 67.31706 38882 ft 454 kts 306°
2026-05-06 02:00 15.28784 67.26386 38878 ft 454 kts 306°
2026-05-06 02:00 15.32463 67.21059 38878 ft 454 kts 306°
2026-05-06 02:01 15.36143 67.15732 38879 ft 454 kts 306°
2026-05-06 02:01 15.39820 67.10406 38883 ft 454 kts 306°
2026-05-06 02:02 15.43497 67.05077 38881 ft 454 kts 306°
2026-05-06 02:02 15.47172 66.99748 38879 ft 454 kts 306°
2026-05-06 02:03 15.50844 66.94420 38884 ft 454 kts 305°
2026-05-06 02:03 15.54517 66.89086 38883 ft 454 kts 305°
2026-05-06 02:04 15.58190 66.83751 38882 ft 454 kts 305°
2026-05-06 02:04 15.61864 66.78471 38876 ft 454 kts 306°
2026-05-06 02:05 15.65584 66.73174 38882 ft 454 kts 306°
2026-05-06 02:05 15.69302 66.67869 38885 ft 454 kts 306°
2026-05-06 02:06 15.73015 66.62562 38889 ft 454 kts 306°
2026-05-06 02:06 15.76727 66.57249 38889 ft 454 kts 306°
2026-05-06 02:07 15.80435 66.51939 38884 ft 454 kts 306°
2026-05-06 02:07 15.84144 66.46623 38890 ft 454 kts 306°
2026-05-06 02:08 15.87852 66.41305 38883 ft 455 kts 306°
2026-05-06 02:08 15.91561 66.35983 38887 ft 455 kts 306°
2026-05-06 02:09 15.95269 66.30660 38877 ft 455 kts 306°
2026-05-06 02:09 15.98982 66.25330 38878 ft 455 kts 306°
2026-05-06 02:10 16.02690 66.19998 38891 ft 455 kts 306°
2026-05-06 02:10 16.05794 66.15530 38890 ft 455 kts 306°
2026-05-06 02:11 16.10104 66.09326 38891 ft 456 kts 306°
2026-05-06 02:11 16.13216 66.04846 38884 ft 456 kts 306°
2026-05-06 02:12 16.16921 65.99493 38884 ft 456 kts 306°
2026-05-06 02:12 16.20622 65.94136 38896 ft 456 kts 306°
2026-05-06 02:13 16.24333 65.88771 38886 ft 457 kts 306°
2026-05-06 02:13 16.28044 65.83407 38891 ft 457 kts 306°
2026-05-06 02:14 16.31756 65.78037 38896 ft 457 kts 306°
2026-05-06 02:14 16.35468 65.72664 38897 ft 456 kts 306°
2026-05-06 02:15 16.39178 65.67291 38892 ft 457 kts 306°
2026-05-06 02:15 16.42887 65.61916 38896 ft 456 kts 306°
2026-05-06 02:16 16.46585 65.56551 38896 ft 456 kts 305°
2026-05-06 02:16 16.50292 65.51169 38891 ft 457 kts 305°
2026-05-06 02:17 16.53998 65.45785 38894 ft 457 kts 305°
2026-05-06 02:17 16.57679 65.40433 38888 ft 457 kts 305°
2026-05-06 02:18 16.61376 65.35053 38887 ft 456 kts 305°
2026-05-06 02:18 16.65065 65.29681 38882 ft 455 kts 305°
2026-05-06 02:19 16.68750 65.24312 38885 ft 455 kts 305°
2026-05-06 02:19 16.72427 65.18950 38873 ft 455 kts 305°
2026-05-06 02:20 16.77943 65.10894 38884 ft 454 kts 305°
2026-05-06 02:21 16.81609 65.05526 38879 ft 455 kts 305°
2026-05-06 02:21 16.85286 65.00128 38901 ft 458 kts 305°
2026-05-06 02:22 16.88978 64.94714 38898 ft 457 kts 305°
2026-05-06 02:22 16.92667 64.89313 38899 ft 457 kts 305°
2026-05-06 02:23 16.96365 64.83922 38901 ft 456 kts 306°
2026-05-06 02:23 17.00064 64.78528 38898 ft 457 kts 305°
2026-05-06 02:24 17.03747 64.73126 38897 ft 456 kts 305°
2026-05-06 02:24 17.07426 64.67718 38897 ft 456 kts 305°
2026-05-06 02:25 17.11102 64.62310 38891 ft 456 kts 305°
2026-05-06 02:25 17.14776 64.56901 38896 ft 456 kts 305°
2026-05-06 02:26 17.18443 64.51485 38900 ft 456 kts 305°
2026-05-06 02:26 17.22115 64.46078 38903 ft 456 kts 305°
2026-05-06 02:27 17.25762 64.40704 38903 ft 456 kts 305°
2026-05-06 02:27 17.29432 64.35300 38905 ft 456 kts 306°
2026-05-06 02:28 17.33196 64.29961 38897 ft 456 kts 306°
2026-05-06 02:28 17.36970 64.24636 38903 ft 455 kts 306°
2026-05-06 02:29 17.40726 64.19309 38902 ft 455 kts 306°
2026-05-06 02:29 17.44483 64.13968 38899 ft 455 kts 306°
2026-05-06 02:30 17.48232 64.08636 38900 ft 455 kts 306°
2026-05-06 02:30 17.51991 64.03307 38900 ft 454 kts 306°
2026-05-06 02:31 17.55741 63.97980 38898 ft 454 kts 306°
2026-05-06 02:31 17.59487 63.92645 38895 ft 454 kts 306°
2026-05-06 02:32 17.63225 63.87305 38908 ft 454 kts 306°